Location: Kershaw
(34.5481°N, 80.5823°W)
Time: 09:00:46
(UTC+00:00)

Altair - Pass Details

Date: 12 October 2022
Orbit: 1501 x 1682 km, 47.2° (Epoch: 30 November)

Event Time Altitude Azimuth Distance (km) Brightness Sun altitude
Rises 14:58:49 0° 303° (WNW) 4,885 9.7 37.9°
Reaches altitude 10° 15:02:01 10° 299° (WNW) 3,913 9.3 38.3°
Maximum altitude 15:11:41 54° 226° (SW) 1,972 8.7 39.6°
Drops below altitude 10° 15:21:26 10° 152° (SSE) 3,927 10.8 40.8°
Sets 15:24:40 0° 148° (SSE) 4,903 11.0 41.2°
